This demonstration page uses our WeatherBlox Daily Observations layout. Learn more.

Left ArrowRight Arrow

Hourly Observations for September 4, 2021

Temp ( °F °C ) Dew Point ( °F °C ) Humidity (%) Winds ( mph kmh ) Pressure ( in mb ) Visibility ( mi km ) Precip ( " mm )
12:15 am 00:15 Mostly Cloudy 66 18.7 64 17.5 93 93 N N/A 29.97 1015 10 16 N/A
12:35 am 00:35 Partly Cloudy 66 18.7 64 17.5 93 93 WNW 3 6 29.98 1015 10 16 N/A
12:55 am 00:55 Clear 65 18.6 63 17.3 92 92 NNW 3 6 29.97 1015 10 16 N/A
1:15 am 01:15 Clear 65 18.5 63 17.1 92 92 N 3 6 29.95 1014 10 16 N/A
1:35 am 01:35 Clear 65 18.2 63 17.3 95 95 N N/A 29.95 1014 10 16 N/A
1:55 am 01:55 Partly Cloudy 65 18.2 63 17.3 95 95 N N/A 29.95 1014 10 16 N/A
2:15 am 02:15 Partly Cloudy 65 18.3 63 17.3 94 94 N N/A 29.95 1014 10 16 N/A
2:35 am 02:35 Partly Cloudy with Drizzle 65 18.3 63 17.3 94 94 N N/A 29.94 1014 10 16 N/A
2:55 am 02:55 Clear 65 18.1 63 17.3 95 95 NNE 6 9 29.94 1014 10 16 N/A
3:15 am 03:15 Mostly Cloudy 65 18.1 63 17.1 94 94 E 3 6 29.94 1014 10 16 N/A
3:35 am 03:35 Cloudy with Light Rain 65 18.1 63 17.1 94 94 N N/A 29.95 1014 10 16 N/A
3:55 am 03:55 Mostly Cloudy with Light Rain 65 18.3 64 17.5 95 95 N N/A 29.95 1014 10 16 N/A
4:15 am 04:15 Partly Cloudy with Light Rain 64 18 63 17.2 95 95 ESE 5 7 29.93 1014 7 11 N/A
4:35 am 04:35 Partly Cloudy with Light Rain 64 17.8 63 17.2 96 96 N N/A 29.94 1014 5 8 0.01 0.25
4:55 am 04:55 Partly Cloudy 64 17.8 63 17.2 96 96 N N/A 29.96 1014 7 11 0.01 0.25
5:15 am 05:15 Partly Cloudy with Mist and Fog 64 17.7 63 17.2 97 97 N N/A 29.95 1014 5 8 N/A
5:35 am 05:35 Clear with Mist and Fog 64 17.7 63 17.2 97 97 N N/A 29.96 1014 5 8 N/A
5:55 am 05:55 Clear with Mist and Fog 64 17.6 63 17.1 97 97 N N/A 29.98 1015 5 8 N/A
6:15 am 06:15 Mostly Cloudy with Mist and Fog 64 17.6 63 17.2 98 98 N N/A 29.98 1015 4 6 N/A
6:35 am 06:35 Cloudy with Mist and Fog 64 17.7 63 17.3 98 98 N N/A 29.99 1015 4 6 N/A
6:55 am 06:55 Cloudy with Mist and Fog 64 17.8 63 17.4 98 98 SE 5 7 29.98 1015 5 8 N/A
7:15 am 07:15 Cloudy 64 17.8 63 17.3 97 97 N N/A 29.99 1015 7 11 N/A
7:35 am 07:35 Cloudy with Mist and Fog 64 17.8 63 17.3 97 97 N N/A 30.02 1016 5 8 N/A
7:55 am 07:55 Cloudy with Mist and Fog 64 17.8 63 17.3 97 97 N 3 6 30.03 1017 5 8 N/A
8:15 am 08:15 Cloudy with Mist and Fog 64 17.8 63 17.3 97 97 NE 3 6 30.03 1017 5 8 N/A
8:35 am 08:35 Cloudy with Mist and Fog 64 17.8 63 17.2 96 96 N N/A 30.03 1017 5 8 N/A
8:55 am 08:55 Cloudy with Mist and Fog 64 17.8 63 17.1 96 96 N N/A 30.03 1017 5 8 N/A
9:15 am 09:15 Cloudy 65 18.1 63 17.1 94 94 N N/A 30.02 1017 7 11 N/A
9:35 am 09:35 Cloudy 66 18.9 63 17.3 90 90 N N/A 30.02 1016 7 11 N/A
9:55 am 09:55 Mostly Cloudy 67 19.3 63 17.2 88 88 N N/A 30.01 1016 7 11 N/A
10:15 am 10:15 Mostly Cloudy 67 19.5 63 17.2 87 87 N N/A 30.01 1016 10 16 N/A
10:35 am 10:35 Cloudy 68 19.8 63 17.3 86 86 N 3 6 30.02 1017 10 16 N/A
10:55 am 10:55 Mostly Cloudy 68 20.1 63 17.1 83 83 N N/A 30.02 1016 10 16 N/A
11:15 am 11:15 Mostly Cloudy 70 21.2 63 17.4 79 79 NE 6 9 30.01 1016 10 16 N/A
11:35 am 11:35 Cloudy 70 20.9 63 17 78 78 NNE 3 6 30.00 1016 10 16 N/A
11:55 am 11:55 Mostly Cloudy 71 21.6 63 17.4 77 77 NW 6 9 29.99 1016 10 16 N/A
12:15 pm 12:15 Partly Cloudy 72 22.1 63 17.2 74 74 NNE 5 7 29.99 1016 10 16 N/A
12:35 pm 12:35 Partly Cloudy 72 22.4 62 16.6 70 70 N 3 6 29.99 1015 10 16 N/A
12:55 pm 12:55 Partly Cloudy 73 22.9 63 17.1 70 70 N 5 7 29.97 1015 10 16 N/A
1:15 pm 13:15 Partly Cloudy 73 23 62 16.6 67 67 NNE 6 9 29.97 1015 10 16 N/A
1:35 pm 13:35 Partly Cloudy 74 23.3 62 16.4 65 65 N 3 6 29.97 1015 10 16 N/A
1:55 pm 13:55 Partly Cloudy 74 23.5 62 16.8 66 66 N N/A 29.96 1015 10 16 N/A
2:15 pm 14:15 Partly Cloudy 75 24 63 17.1 65 65 NNE 5 7 29.95 1014 10 16 N/A
2:35 pm 14:35 Partly Cloudy 75 24 62 16.8 64 64 N N/A 29.95 1014 10 16 N/A
2:55 pm 14:55 Partly Cloudy 76 24.2 63 17.1 65 65 ENE 5 7 29.94 1014 10 16 N/A
3:15 pm 15:15 Sunny 76 24.5 62 16.8 62 62 N N/A 29.94 1014 10 16 N/A
3:35 pm 15:35 Partly Cloudy 76 24.7 63 17.2 63 63 NNE 7 11 29.93 1014 7 11 N/A
3:55 pm 15:55 Sunny 77 24.9 62 16.8 61 61 N N/A 29.92 1013 10 16 N/A
4:15 pm 16:15 Partly Cloudy 77 24.9 62 16.7 60 60 NNE 3 6 29.92 1013 10 16 N/A
4:35 pm 16:35 Sunny 77 25 62 16.8 60 60 NNE 3 6 29.92 1013 10 16 N/A
4:55 pm 16:55 Sunny 77 25 62 16.4 59 59 ENE 5 7 29.92 1013 10 16 N/A
5:15 pm 17:15 Sunny 77 25.1 63 17.3 62 62 NE 6 9 29.92 1013 10 16 N/A
5:35 pm 17:35 Sunny 77 25 62 16.7 60 60 N N/A 29.92 1013 10 16 N/A
5:55 pm 17:55 Partly Cloudy 77 25 62 16.6 60 60 N N/A 29.92 1013 10 16 N/A
6:15 pm 18:15 Sunny 76 24.6 62 16.4 60 60 ENE 5 7 29.92 1013 10 16 N/A
6:35 pm 18:35 Sunny 76 24.5 60 15.5 57 57 E 6 9 29.92 1013 10 16 N/A
6:55 pm 18:55 Sunny 75 24 61 16.2 62 62 E 5 7 29.92 1013 10 16 N/A
7:15 pm 19:15 Sunny 74 23.2 63 17 68 68 E 5 7 29.93 1014 10 16 N/A
7:35 pm 19:35 Sunny 72 22.2 64 17.7 76 76 ESE 5 7 29.94 1014 10 16 N/A
7:55 pm 19:55 Sunny 70 21 64 17.7 82 82 ESE 5 7 29.95 1014 10 16 N/A
8:15 pm 20:15 Clear 68 20.2 64 17.7 86 86 ESE 5 7 29.96 1014 10 16 N/A
8:35 pm 20:35 Clear 67 19.4 63 17.2 87 87 ESE 5 7 29.96 1015 10 16 N/A
8:55 pm 20:55 Clear 66 18.8 62 16.5 87 87 SE 6 9 29.98 1015 10 16 N/A
9:15 pm 21:15 Clear 65 18.6 62 16.5 88 88 SE 6 9 29.98 1015 10 16 N/A
9:35 pm 21:35 Clear 65 18.4 61 16.1 87 87 SE 7 11 29.99 1016 10 16 N/A
9:55 pm 21:55 Clear 64 17.8 60 15.3 85 85 SE 7 11 30.00 1016 10 16 N/A
10:15 pm 22:15 Clear 64 17.6 58 14.7 83 83 SE 5 7 30.01 1016 10 16 N/A
10:35 pm 22:35 Clear 62 16.7 58 14.5 87 87 SE 5 7 30.01 1016 10 16 N/A
10:55 pm 22:55 Clear 62 16.6 58 14.5 88 88 SE 5 7 30.02 1016 10 16 N/A
11:15 pm 23:15 Clear 62 16.6 58 14.5 88 88 SE 5 7 30.02 1016 10 16 N/A
11:35 pm 23:35 Clear 61 16.2 58 14.5 90 90 SE 6 9 30.02 1017 10 16 N/A
11:55 pm 23:55 Clear 61 16.3 58 14.5 89 89 SE 5 7 30.03 1017 10 16 N/A

Powered by AerisWeather